owner,sensor,date,latitude,longitude,air_pressure(mBar),qcFlag 
TABS,ioos:station:wmo:42044:1,2017-04-01T00:00:00Z,26.1914,-97.0507,1006.94,11111222 
TABS,ioos:station:wmo:42044:1,2017-04-01T00:30:00Z,26.1914,-97.0507,1007.24,11111222 
TABS,ioos:station:wmo:42044:1,2017-04-01T01:00:00Z,26.1914,-97.0507,1006.86,11111222 
TABS,ioos:station:wmo:42044:1,2017-04-01T01:30:00Z,26.1914,-97.0507,1007.58,11111222 
TABS,ioos:station:wmo:42044:1,2017-04-01T02:00:00Z,26.1914,-97.0507,1007.26,11111222 
TABS,ioos:station:wmo:42044:1,2017-04-01T02:30:00Z,26.1914,-97.0507,1007.78,11111222 
TABS,ioos:station:wmo:42044:1,2017-04-01T03:00:00Z,26.1914,-97.0507,1007.68,11111222 
TABS,ioos:station:wmo:42044:1,2017-04-01T03:30:00Z,26.1914,-97.0507,1008.01,11111222 
TABS,ioos:station:wmo:42044:1,2017-04-01T04:00:00Z,26.1914,-97.0507,1008.01,11111222 
TABS,ioos:station:wmo:42044:1,2017-04-01T04:30:00Z,26.1914,-97.0507,1007.8,11111222 
TABS,ioos:station:wmo:42044:1,2017-04-01T05:00:00Z,26.1914,-97.0507,1007.98,11111222 
TABS,ioos:station:wmo:42044:1,2017-04-01T05:30:00Z,26.1914,-97.0507,1008.0,11111222 
TABS,ioos:station:wmo:42044:1,2017-04-01T06:00:00Z,26.1914,-97.0507,1007.92,11111222 
TABS,ioos:station:wmo:42044:1,2017-04-01T06:30:00Z,26.1914,-97.0507,1008.11,11111222 
TABS,ioos:station:wmo:42044:1,2017-04-01T07:00:00Z,26.1914,-97.0507,1007.99,11111222 
TABS,ioos:station:wmo:42044:1,2017-04-01T07:30:00Z,26.1914,-97.0507,1007.47,11111222 
TABS,ioos:station:wmo:42044:1,2017-04-01T08:00:00Z,26.1914,-97.0507,1007.21,11111222 
TABS,ioos:station:wmo:42044:1,2017-04-01T08:30:00Z,26.1914,-97.0507,1006.91,11111222 
TABS,ioos:station:wmo:42044:1,2017-04-01T09:00:00Z,26.1914,-97.0507,1007.26,11111222 
TABS,ioos:station:wmo:42044:1,2017-04-01T09:30:00Z,26.1914,-97.0507,1006.56,11111222 
TABS,ioos:station:wmo:42044:1,2017-04-01T10:00:00Z,26.1914,-97.0507,1007.09,11111222 
TABS,ioos:station:wmo:42044:1,2017-04-01T10:30:00Z,26.1914,-97.0507,1006.89,11111222 
TABS,ioos:station:wmo:42044:1,2017-04-01T11:00:00Z,26.1914,-97.0507,1007.37,11111222 
TABS,ioos:station:wmo:42044:1,2017-04-01T11:30:00Z,26.1914,-97.0507,1007.9,11111222 
TABS,ioos:station:wmo:42044:1,2017-04-01T12:00:00Z,26.1914,-97.0507,1008.1,11111222 
TABS,ioos:station:wmo:42044:1,2017-04-01T12:30:00Z,26.1914,-97.0507,1008.15,11111222 
TABS,ioos:station:wmo:42044:1,2017-04-01T13:00:00Z,26.1914,-97.0507,1008.81,11111222 
TABS,ioos:station:wmo:42044:1,2017-04-01T13:30:00Z,26.1914,-97.0507,1008.92,11111222 
TABS,ioos:station:wmo:42044:1,2017-04-01T14:00:00Z,26.1914,-97.0507,1008.88,11111222 
TABS,ioos:station:wmo:42044:1,2017-04-01T14:30:00Z,26.1914,-97.0507,1008.99,11111222 
TABS,ioos:station:wmo:42044:1,2017-04-01T15:00:00Z,26.1914,-97.0507,1008.51,11111222 
TABS,ioos:station:wmo:42044:1,2017-04-01T15:30:00Z,26.1914,-97.0507,1009.05,11111222 
TABS,ioos:station:wmo:42044:1,2017-04-01T16:00:00Z,26.1914,-97.0507,1008.81,11111222 
TABS,ioos:station:wmo:42044:1,2017-04-01T16:30:00Z,26.1914,-97.0507,1009.3,11111222 
TABS,ioos:station:wmo:42044:1,2017-04-01T17:00:00Z,26.1914,-97.0507,1008.98,11111222 
TABS,ioos:station:wmo:42044:1,2017-04-01T17:30:00Z,26.1914,-97.0507,1009.05,11111222 
TABS,ioos:station:wmo:42044:1,2017-04-01T18:00:00Z,26.1914,-97.0507,1008.53,11111222 
TABS,ioos:station:wmo:42044:1,2017-04-01T18:30:00Z,26.1914,-97.0507,1008.65,11111222 
TABS,ioos:station:wmo:42044:1,2017-04-01T19:00:00Z,26.1914,-97.0507,1008.08,11111222 
TABS,ioos:station:wmo:42044:1,2017-04-01T19:30:00Z,26.1914,-97.0507,1007.92,11111222 
TABS,ioos:station:wmo:42044:1,2017-04-01T20:00:00Z,26.1914,-97.0507,1007.32,11111222 
TABS,ioos:station:wmo:42044:1,2017-04-01T20:30:00Z,26.1914,-97.0507,1007.26,11111222 
TABS,ioos:station:wmo:42044:1,2017-04-01T21:00:00Z,26.1914,-97.0507,1007.14,11111222 
TABS,ioos:station:wmo:42044:1,2017-04-01T21:30:00Z,26.1914,-97.0507,1006.84,11111222 
TABS,ioos:station:wmo:42044:1,2017-04-01T22:00:00Z,26.1914,-97.0507,1006.61,11111222 
TABS,ioos:station:wmo:42044:1,2017-04-01T22:30:00Z,26.1914,-97.0507,1006.57,11111222 
TABS,ioos:station:wmo:42044:1,2017-04-01T23:00:00Z,26.1914,-97.0507,1006.54,11111222 
TABS,ioos:station:wmo:42044:1,2017-04-01T23:30:00Z,26.1914,-97.0507,1006.58,11111222 
TABS,ioos:station:wmo:42044:1,2017-04-02T00:00:00Z,26.1914,-97.0507,1006.59,11111222 
TABS,ioos:station:wmo:42044:1,2017-04-02T00:30:00Z,26.1914,-97.0507,1006.79,11111222 
TABS,ioos:station:wmo:42044:1,2017-04-02T01:00:00Z,26.1914,-97.0507,1007.05,11111222 
TABS,ioos:station:wmo:42044:1,2017-04-02T01:30:00Z,26.1914,-97.0507,1007.32,11111222 
TABS,ioos:station:wmo:42044:1,2017-04-02T02:00:00Z,26.1914,-97.0507,1007.25,11111222 
TABS,ioos:station:wmo:42044:1,2017-04-02T02:30:00Z,26.1914,-97.0507,1007.47,11111222 
TABS,ioos:station:wmo:42044:1,2017-04-02T03:00:00Z,26.1914,-97.0507,1007.46,11111222 
TABS,ioos:station:wmo:42044:1,2017-04-02T03:30:00Z,26.1914,-97.0507,1007.8,11111222 
TABS,ioos:station:wmo:42044:1,2017-04-02T04:00:00Z,26.1914,-97.0507,1008.07,11111222 
TABS,ioos:station:wmo:42044:1,2017-04-02T04:30:00Z,26.1914,-97.0507,1007.82,11111222 
TABS,ioos:station:wmo:42044:1,2017-04-02T05:00:00Z,26.1914,-97.0507,1008.35,11111222 
TABS,ioos:station:wmo:42044:1,2017-04-02T05:30:00Z,26.1914,-97.0507,1007.72,11111222 
TABS,ioos:station:wmo:42044:1,2017-04-02T06:00:00Z,26.1914,-97.0507,1007.38,11111222 
TABS,ioos:station:wmo:42044:1,2017-04-02T06:30:00Z,26.1914,-97.0507,1006.78,11111222 
TABS,ioos:station:wmo:42044:1,2017-04-02T07:00:00Z,26.1914,-97.0507,1006.77,11111222 
TABS,ioos:station:wmo:42044:1,2017-04-02T07:30:00Z,26.1914,-97.0507,1006.13,11111222 
TABS,ioos:station:wmo:42044:1,2017-04-02T08:00:00Z,26.1914,-97.0507,1005.86,11111222 
TABS,ioos:station:wmo:42044:1,2017-04-02T08:30:00Z,26.1914,-97.0507,1005.24,11111222 
TABS,ioos:station:wmo:42044:1,2017-04-02T09:00:00Z,26.1914,-97.0507,1004.67,11111222 
TABS,ioos:station:wmo:42044:1,2017-04-02T09:30:00Z,26.1914,-97.0507,1003.86,11111222 
TABS,ioos:station:wmo:42044:1,2017-04-02T10:00:00Z,26.1914,-97.0507,1003.58,11111222 
TABS,ioos:station:wmo:42044:1,2017-04-02T10:30:00Z,26.1914,-97.0507,1004.45,11111222 
TABS,ioos:station:wmo:42044:1,2017-04-02T11:00:00Z,26.1914,-97.0507,1004.75,11111222 
TABS,ioos:station:wmo:42044:1,2017-04-02T11:30:00Z,26.1914,-97.0507,1004.51,11111222 
TABS,ioos:station:wmo:42044:1,2017-04-02T12:00:00Z,26.1914,-97.0507,1005.06,11111222 
TABS,ioos:station:wmo:42044:1,2017-04-02T12:30:00Z,26.1914,-97.0507,1005.28,11111222 
TABS,ioos:station:wmo:42044:1,2017-04-02T13:00:00Z,26.1914,-97.0507,1005.07,11111222 
TABS,ioos:station:wmo:42044:1,2017-04-02T13:30:00Z,26.1914,-97.0507,1005.07,11111222 
TABS,ioos:station:wmo:42044:1,2017-04-02T14:00:00Z,26.1914,-97.0507,1005.02,11111222 
TABS,ioos:station:wmo:42044:1,2017-04-02T14:30:00Z,26.1914,-97.0507,1005.25,11111222 
TABS,ioos:station:wmo:42044:1,2017-04-02T15:00:00Z,26.1914,-97.0507,1005.53,11111222 
TABS,ioos:station:wmo:42044:1,2017-04-02T15:30:00Z,26.1914,-97.0507,1005.31,11111222 
TABS,ioos:station:wmo:42044:1,2017-04-02T16:00:00Z,26.1914,-97.0507,1005.22,11111222 
TABS,ioos:station:wmo:42044:1,2017-04-02T16:30:00Z,26.1914,-97.0507,1004.85,11111222 
TABS,ioos:station:wmo:42044:1,2017-04-02T17:00:00Z,26.1914,-97.0507,1004.91,11111222 
TABS,ioos:station:wmo:42044:1,2017-04-02T17:30:00Z,26.1914,-97.0507,1004.73,11111222 
TABS,ioos:station:wmo:42044:1,2017-04-02T18:00:00Z,26.1914,-97.0507,1004.38,11111222 
TABS,ioos:station:wmo:42044:1,2017-04-02T18:30:00Z,26.1914,-97.0507,1003.93,11111222 
TABS,ioos:station:wmo:42044:1,2017-04-02T19:00:00Z,26.1914,-97.0507,1003.35,11111222 
TABS,ioos:station:wmo:42044:1,2017-04-02T19:30:00Z,26.1914,-97.0507,1002.62,11111222 
TABS,ioos:station:wmo:42044:1,2017-04-02T20:00:00Z,26.1914,-97.0507,1002.38,11111222 
TABS,ioos:station:wmo:42044:1,2017-04-02T20:30:00Z,26.1914,-97.0507,1002.37,11111222 
TABS,ioos:station:wmo:42044:1,2017-04-02T21:00:00Z,26.1914,-97.0507,1002.03,11111222 
TABS,ioos:station:wmo:42044:1,2017-04-02T21:30:00Z,26.1914,-97.0507,1001.58,11111222 
TABS,ioos:station:wmo:42044:1,2017-04-02T22:00:00Z,26.1914,-97.0507,1001.61,11111222 
TABS,ioos:station:wmo:42044:1,2017-04-02T22:30:00Z,26.1914,-97.0507,1001.46,11111222 
TABS,ioos:station:wmo:42044:1,2017-04-02T23:00:00Z,26.1914,-97.0507,1001.45,11111222 
TABS,ioos:station:wmo:42044:1,2017-04-02T23:30:00Z,26.1914,-97.0507,1001.59,11111222 
TABS,ioos:station:wmo:42044:1,2017-04-03T00:00:00Z,26.1914,-97.0507,1002.17,11111222 
TABS,ioos:station:wmo:42044:1,2017-04-03T00:30:00Z,26.1914,-97.0507,1002.0,11111222 
TABS,ioos:station:wmo:42044:1,2017-04-03T01:00:00Z,26.1914,-97.0507,1002.87,11111222 
TABS,ioos:station:wmo:42044:1,2017-04-03T01:30:00Z,26.1914,-97.0507,1003.21,11111222 
TABS,ioos:station:wmo:42044:1,2017-04-03T02:00:00Z,26.1914,-97.0507,1003.98,11111222 
TABS,ioos:station:wmo:42044:1,2017-04-03T02:30:00Z,26.1914,-97.0507,1004.98,11111222 
TABS,ioos:station:wmo:42044:1,2017-04-03T03:00:00Z,26.1914,-97.0507,1006.72,11111222 
TABS,ioos:station:wmo:42044:1,2017-04-03T03:30:00Z,26.1914,-97.0507,1007.5,11111222 
TABS,ioos:station:wmo:42044:1,2017-04-03T04:00:00Z,26.1914,-97.0507,1007.13,11111222 
TABS,ioos:station:wmo:42044:1,2017-04-03T04:30:00Z,26.1914,-97.0507,1007.81,11111222 
TABS,ioos:station:wmo:42044:1,2017-04-03T05:00:00Z,26.1914,-97.0507,1008.08,11111222 
TABS,ioos:station:wmo:42044:1,2017-04-03T05:30:00Z,26.1914,-97.0507,1008.74,11111222 
TABS,ioos:station:wmo:42044:1,2017-04-03T06:00:00Z,26.1914,-97.0507,1008.04,11111222 
TABS,ioos:station:wmo:42044:1,2017-04-03T06:30:00Z,26.1914,-97.0507,1008.38,11111222 
TABS,ioos:station:wmo:42044:1,2017-04-03T07:00:00Z,26.1914,-97.0507,1008.88,11111222 
TABS,ioos:station:wmo:42044:1,2017-04-03T07:30:00Z,26.1914,-97.0507,1008.58,11111222 
TABS,ioos:station:wmo:42044:1,2017-04-03T08:00:00Z,26.1914,-97.0507,1008.76,11111222 
TABS,ioos:station:wmo:42044:1,2017-04-03T08:30:00Z,26.1914,-97.0507,1008.77,11111222 
TABS,ioos:station:wmo:42044:1,2017-04-03T09:00:00Z,26.1914,-97.0507,1008.48,11111222 
TABS,ioos:station:wmo:42044:1,2017-04-03T09:30:00Z,26.1914,-97.0507,1008.53,11111222 
TABS,ioos:station:wmo:42044:1,2017-04-03T10:00:00Z,26.1914,-97.0507,1008.77,11111222 
TABS,ioos:station:wmo:42044:1,2017-04-03T10:30:00Z,26.1914,-97.0507,1009.38,11111222 
TABS,ioos:station:wmo:42044:1,2017-04-03T11:00:00Z,26.1914,-97.0507,1009.22,11111222 
TABS,ioos:station:wmo:42044:1,2017-04-03T11:30:00Z,26.1914,-97.0507,1009.49,11111222 
TABS,ioos:station:wmo:42044:1,2017-04-03T12:00:00Z,26.1914,-97.0507,1009.94,11111222 
TABS,ioos:station:wmo:42044:1,2017-04-03T12:30:00Z,26.1914,-97.0507,1010.37,11111222 
TABS,ioos:station:wmo:42044:1,2017-04-03T13:00:00Z,26.1914,-97.0507,1010.46,11111222 
TABS,ioos:station:wmo:42044:1,2017-04-03T13:30:00Z,26.1914,-97.0507,1010.81,11111222 
TABS,ioos:station:wmo:42044:1,2017-04-03T14:00:00Z,26.1914,-97.0507,1011.22,11111222 
TABS,ioos:station:wmo:42044:1,2017-04-03T14:30:00Z,26.1914,-97.0507,1011.38,11111222 
TABS,ioos:station:wmo:42044:1,2017-04-03T15:00:00Z,26.1914,-97.0507,1011.38,11111222 
TABS,ioos:station:wmo:42044:1,2017-04-03T15:30:00Z,26.1914,-97.0507,1011.51,11111222 
TABS,ioos:station:wmo:42044:1,2017-04-03T16:00:00Z,26.1914,-97.0507,1011.23,11111222 
TABS,ioos:station:wmo:42044:1,2017-04-03T16:30:00Z,26.1914,-97.0507,1011.21,11111222 
TABS,ioos:station:wmo:42044:1,2017-04-03T17:00:00Z,26.1914,-97.0507,1011.15,11111222 
TABS,ioos:station:wmo:42044:1,2017-04-03T17:30:00Z,26.1914,-97.0507,1010.92,11111222 
TABS,ioos:station:wmo:42044:1,2017-04-03T18:00:00Z,26.1914,-97.0507,1010.62,11111222 
TABS,ioos:station:wmo:42044:1,2017-04-03T18:30:00Z,26.1914,-97.0507,1009.9,11111222 
TABS,ioos:station:wmo:42044:1,2017-04-03T19:00:00Z,26.1914,-97.0507,1009.29,11111222 
TABS,ioos:station:wmo:42044:1,2017-04-03T19:30:00Z,26.1914,-97.0507,1009.17,11111222 
TABS,ioos:station:wmo:42044:1,2017-04-03T20:00:00Z,26.1914,-97.0507,1008.69,11111222 
TABS,ioos:station:wmo:42044:1,2017-04-03T20:30:00Z,26.1914,-97.0507,1008.25,11111222 
TABS,ioos:station:wmo:42044:1,2017-04-03T21:00:00Z,26.1914,-97.0507,1007.8,11111222 
TABS,ioos:station:wmo:42044:1,2017-04-03T21:30:00Z,26.1914,-97.0507,1007.59,11111222 
TABS,ioos:station:wmo:42044:1,2017-04-03T22:00:00Z,26.1914,-97.0507,1007.41,11111222 
TABS,ioos:station:wmo:42044:1,2017-04-03T22:30:00Z,26.1914,-97.0507,1007.09,11111222 
TABS,ioos:station:wmo:42044:1,2017-04-03T23:00:00Z,26.1914,-97.0507,1006.64,11111222 
TABS,ioos:station:wmo:42044:1,2017-04-03T23:30:00Z,26.1914,-97.0507,1006.67,11111222 
TABS,ioos:station:wmo:42044:1,2017-04-04T00:00:00Z,26.1914,-97.0507,1006.57,11111222 
TABS,ioos:station:wmo:42044:1,2017-04-04T00:30:00Z,26.1914,-97.0507,1007.13,11111222 
TABS,ioos:station:wmo:42044:1,2017-04-04T01:00:00Z,26.1914,-97.0507,1007.19,11111222 
TABS,ioos:station:wmo:42044:1,2017-04-04T01:30:00Z,26.1914,-97.0507,1007.31,11111222 
TABS,ioos:station:wmo:42044:1,2017-04-04T02:00:00Z,26.1914,-97.0507,1007.86,11111222 
TABS,ioos:station:wmo:42044:1,2017-04-04T02:30:00Z,26.1914,-97.0507,1008.08,11111222 
TABS,ioos:station:wmo:42044:1,2017-04-04T03:00:00Z,26.1914,-97.0507,1008.34,11111222 
TABS,ioos:station:wmo:42044:1,2017-04-04T03:30:00Z,26.1914,-97.0507,1008.46,11111222 
TABS,ioos:station:wmo:42044:1,2017-04-04T04:00:00Z,26.1914,-97.0507,1008.68,11111222 
TABS,ioos:station:wmo:42044:1,2017-04-04T04:30:00Z,26.1914,-97.0507,1008.67,11111222 
TABS,ioos:station:wmo:42044:1,2017-04-04T05:00:00Z,26.1914,-97.0507,1008.73,11111222 
TABS,ioos:station:wmo:42044:1,2017-04-04T05:30:00Z,26.1914,-97.0507,1008.3,11111222 
TABS,ioos:station:wmo:42044:1,2017-04-04T06:00:00Z,26.1914,-97.0507,1007.78,11111222 
TABS,ioos:station:wmo:42044:1,2017-04-04T06:30:00Z,26.1914,-97.0507,1007.91,11111222 
TABS,ioos:station:wmo:42044:1,2017-04-04T07:00:00Z,26.1914,-97.0507,1007.54,11111222 
TABS,ioos:station:wmo:42044:1,2017-04-04T07:30:00Z,26.1914,-97.0507,1007.12,11111222 
TABS,ioos:station:wmo:42044:1,2017-04-04T08:00:00Z,26.1914,-97.0507,1007.09,11111222 
TABS,ioos:station:wmo:42044:1,2017-04-04T08:30:00Z,26.1914,-97.0507,1006.66,11111222 
TABS,ioos:station:wmo:42044:1,2017-04-04T09:00:00Z,26.1914,-97.0507,1006.17,11111222 
TABS,ioos:station:wmo:42044:1,2017-04-04T09:30:00Z,26.1914,-97.0507,1006.21,11111222 
TABS,ioos:station:wmo:42044:1,2017-04-04T10:00:00Z,26.1914,-97.0507,1006.25,11111222 
TABS,ioos:station:wmo:42044:1,2017-04-04T10:30:00Z,26.1914,-97.0507,1006.39,11111222 
TABS,ioos:station:wmo:42044:1,2017-04-04T11:00:00Z,26.1914,-97.0507,1006.23,11111222 
TABS,ioos:station:wmo:42044:1,2017-04-04T11:30:00Z,26.1914,-97.0507,1006.4,11111222 
TABS,ioos:station:wmo:42044:1,2017-04-04T12:00:00Z,26.1914,-97.0507,1006.38,11111222 
TABS,ioos:station:wmo:42044:1,2017-04-04T12:30:00Z,26.1914,-97.0507,1006.53,11111222 
TABS,ioos:station:wmo:42044:1,2017-04-04T13:00:00Z,26.1914,-97.0507,1006.75,11111222 
TABS,ioos:station:wmo:42044:1,2017-04-04T13:30:00Z,26.1914,-97.0507,1006.89,11111222 
TABS,ioos:station:wmo:42044:1,2017-04-04T14:00:00Z,26.1914,-97.0507,1006.66,11111222 
TABS,ioos:station:wmo:42044:1,2017-04-04T14:30:00Z,26.1914,-97.0507,1006.93,11111222 
TABS,ioos:station:wmo:42044:1,2017-04-04T15:00:00Z,26.1914,-97.0507,1007.0,11111222 
TABS,ioos:station:wmo:42044:1,2017-04-04T15:30:00Z,26.1914,-97.0507,1006.95,11111222 
TABS,ioos:station:wmo:42044:1,2017-04-04T16:00:00Z,26.1914,-97.0507,1006.88,11111222 
TABS,ioos:station:wmo:42044:1,2017-04-04T16:30:00Z,26.1914,-97.0507,1006.65,11111222 
TABS,ioos:station:wmo:42044:1,2017-04-04T17:00:00Z,26.1914,-97.0507,1006.05,11111222 
TABS,ioos:station:wmo:42044:1,2017-04-04T17:30:00Z,26.1914,-97.0507,1005.98,11111222 
TABS,ioos:station:wmo:42044:1,2017-04-04T18:00:00Z,26.1914,-97.0507,1005.37,11111222 
TABS,ioos:station:wmo:42044:1,2017-04-04T18:30:00Z,26.1914,-97.0507,1005.18,11111222 
TABS,ioos:station:wmo:42044:1,2017-04-04T19:00:00Z,26.1914,-97.0507,1004.97,11111222 
TABS,ioos:station:wmo:42044:1,2017-04-04T19:30:00Z,26.1914,-97.0507,1004.58,11111222 
TABS,ioos:station:wmo:42044:1,2017-04-04T20:00:00Z,26.1914,-97.0507,1003.77,11111222 
TABS,ioos:station:wmo:42044:1,2017-04-04T20:30:00Z,26.1914,-97.0507,1003.48,11111222 
TABS,ioos:station:wmo:42044:1,2017-04-04T21:00:00Z,26.1914,-97.0507,1003.19,11111222 
TABS,ioos:station:wmo:42044:1,2017-04-04T21:30:00Z,26.1914,-97.0507,1003.15,11111222 
TABS,ioos:station:wmo:42044:1,2017-04-04T22:00:00Z,26.1914,-97.0507,1003.34,11111222 
TABS,ioos:station:wmo:42044:1,2017-04-04T22:30:00Z,26.1914,-97.0507,1003.5,11111222 
TABS,ioos:station:wmo:42044:1,2017-04-04T23:00:00Z,26.1914,-97.0507,1003.6,11111222 
TABS,ioos:station:wmo:42044:1,2017-04-04T23:30:00Z,26.1914,-97.0507,1003.9,11111222 
TABS,ioos:station:wmo:42044:1,2017-04-05T00:00:00Z,26.1914,-97.0507,1003.95,11111222 
TABS,ioos:station:wmo:42044:1,2017-04-05T00:30:00Z,26.1914,-97.0507,1004.31,11111222 
TABS,ioos:station:wmo:42044:1,2017-04-05T01:00:00Z,26.1914,-97.0507,1004.47,11111222 
TABS,ioos:station:wmo:42044:1,2017-04-05T01:30:00Z,26.1914,-97.0507,1004.99,11111222 
TABS,ioos:station:wmo:42044:1,2017-04-05T02:00:00Z,26.1914,-97.0507,1005.23,11111222 
TABS,ioos:station:wmo:42044:1,2017-04-05T02:30:00Z,26.1914,-97.0507,1005.58,11111222 
TABS,ioos:station:wmo:42044:1,2017-04-05T03:00:00Z,26.1914,-97.0507,1005.91,11111222 
TABS,ioos:station:wmo:42044:1,2017-04-05T03:30:00Z,26.1914,-97.0507,1005.97,11111222 
TABS,ioos:station:wmo:42044:1,2017-04-05T04:00:00Z,26.1914,-97.0507,1006.35,11111222 
TABS,ioos:station:wmo:42044:1,2017-04-05T04:30:00Z,26.1914,-97.0507,1006.37,11111222 
TABS,ioos:station:wmo:42044:1,2017-04-05T05:00:00Z,26.1914,-97.0507,1006.71,11111222 
TABS,ioos:station:wmo:42044:1,2017-04-05T05:30:00Z,26.1914,-97.0507,1006.66,11111222 
TABS,ioos:station:wmo:42044:1,2017-04-05T06:00:00Z,26.1914,-97.0507,1006.58,11111222 
TABS,ioos:station:wmo:42044:1,2017-04-05T06:30:00Z,26.1914,-97.0507,1006.49,11111222 
TABS,ioos:station:wmo:42044:1,2017-04-05T07:00:00Z,26.1914,-97.0507,1006.28,11111222 
TABS,ioos:station:wmo:42044:1,2017-04-05T07:30:00Z,26.1914,-97.0507,1006.19,11111222 
TABS,ioos:station:wmo:42044:1,2017-04-05T08:00:00Z,26.1914,-97.0507,1006.11,11111222 
TABS,ioos:station:wmo:42044:1,2017-04-05T08:30:00Z,26.1914,-97.0507,1006.05,11111222 
TABS,ioos:station:wmo:42044:1,2017-04-05T09:00:00Z,26.1914,-97.0507,1006.05,11111222 
TABS,ioos:station:wmo:42044:1,2017-04-05T09:30:00Z,26.1914,-97.0507,1006.45,11111222 
TABS,ioos:station:wmo:42044:1,2017-04-05T10:00:00Z,26.1914,-97.0507,1007.01,11111222 
TABS,ioos:station:wmo:42044:1,2017-04-05T10:30:00Z,26.1914,-97.0507,1007.38,11111222 
TABS,ioos:station:wmo:42044:1,2017-04-05T11:00:00Z,26.1914,-97.0507,1008.42,11111222 
TABS,ioos:station:wmo:42044:1,2017-04-05T11:30:00Z,26.1914,-97.0507,1008.89,11111222 
TABS,ioos:station:wmo:42044:1,2017-04-05T12:00:00Z,26.1914,-97.0507,1010.66,11111222 
TABS,ioos:station:wmo:42044:1,2017-04-05T12:30:00Z,26.1914,-97.0507,1011.58,11111222 
TABS,ioos:station:wmo:42044:1,2017-04-05T13:00:00Z,26.1914,-97.0507,1012.25,11111222 
TABS,ioos:station:wmo:42044:1,2017-04-05T13:30:00Z,26.1914,-97.0507,1012.93,11111222 
TABS,ioos:station:wmo:42044:1,2017-04-05T14:00:00Z,26.1914,-97.0507,1013.65,11111222 
TABS,ioos:station:wmo:42044:1,2017-04-05T14:30:00Z,26.1914,-97.0507,1014.21,11111222 
TABS,ioos:station:wmo:42044:1,2017-04-05T15:00:00Z,26.1914,-97.0507,1015.15,11111222 
TABS,ioos:station:wmo:42044:1,2017-04-05T15:30:00Z,26.1914,-97.0507,1016.21,11111222 
TABS,ioos:station:wmo:42044:1,2017-04-05T16:00:00Z,26.1914,-97.0507,1016.82,11111222 
TABS,ioos:station:wmo:42044:1,2017-04-05T16:30:00Z,26.1914,-97.0507,1017.78,11111222 
TABS,ioos:station:wmo:42044:1,2017-04-05T17:00:00Z,26.1914,-97.0507,1017.14,11111222 
TABS,ioos:station:wmo:42044:1,2017-04-05T17:30:00Z,26.1914,-97.0507,1017.84,11111222 
TABS,ioos:station:wmo:42044:1,2017-04-05T18:00:00Z,26.1914,-97.0507,1017.48,11111222 
TABS,ioos:station:wmo:42044:1,2017-04-05T18:30:00Z,26.1914,-97.0507,1017.59,11111222 
TABS,ioos:station:wmo:42044:1,2017-04-05T19:00:00Z,26.1914,-97.0507,1018.23,11111222 
TABS,ioos:station:wmo:42044:1,2017-04-05T19:30:00Z,26.1914,-97.0507,1017.54,11111222 
TABS,ioos:station:wmo:42044:1,2017-04-05T20:00:00Z,26.1914,-97.0507,1017.61,11111222 
TABS,ioos:station:wmo:42044:1,2017-04-05T20:30:00Z,26.1914,-97.0507,1017.72,11111222 
TABS,ioos:station:wmo:42044:1,2017-04-05T21:00:00Z,26.1914,-97.0507,1017.31,11111222 
TABS,ioos:station:wmo:42044:1,2017-04-05T21:30:00Z,26.1914,-97.0507,1016.83,11111222 
TABS,ioos:station:wmo:42044:1,2017-04-05T22:00:00Z,26.1914,-97.0507,1017.35,11111222 
TABS,ioos:station:wmo:42044:1,2017-04-05T22:30:00Z,26.1914,-97.0507,1017.39,11111222 
TABS,ioos:station:wmo:42044:1,2017-04-05T23:00:00Z,26.1914,-97.0507,1017.64,11111222 
TABS,ioos:station:wmo:42044:1,2017-04-05T23:30:00Z,26.1914,-97.0507,1017.66,11111222 
TABS,ioos:station:wmo:42044:1,2017-04-06T00:00:00Z,26.1914,-97.0507,1018.12,11111222 
TABS,ioos:station:wmo:42044:1,2017-04-06T00:30:00Z,26.1914,-97.0507,1018.4,11111222 
TABS,ioos:station:wmo:42044:1,2017-04-06T01:00:00Z,26.1914,-97.0507,1018.61,11111222 
TABS,ioos:station:wmo:42044:1,2017-04-06T01:30:00Z,26.1914,-97.0507,1018.86,11111222 
TABS,ioos:station:wmo:42044:1,2017-04-06T02:00:00Z,26.1914,-97.0507,1019.35,11111222 
TABS,ioos:station:wmo:42044:1,2017-04-06T02:30:00Z,26.1914,-97.0507,1019.7,11111222 
TABS,ioos:station:wmo:42044:1,2017-04-06T03:00:00Z,26.1914,-97.0507,1020.03,11111222 
TABS,ioos:station:wmo:42044:1,2017-04-06T03:30:00Z,26.1914,-97.0507,1020.38,11111222 
TABS,ioos:station:wmo:42044:1,2017-04-06T04:00:00Z,26.1914,-97.0507,1020.59,11111222 
TABS,ioos:station:wmo:42044:1,2017-04-06T04:30:00Z,26.1914,-97.0507,1021.16,11111222 
TABS,ioos:station:wmo:42044:1,2017-04-06T05:00:00Z,26.1914,-97.0507,1020.72,11111222 
TABS,ioos:station:wmo:42044:1,2017-04-06T05:30:00Z,26.1914,-97.0507,1021.07,11111222 
TABS,ioos:station:wmo:42044:1,2017-04-06T06:00:00Z,26.1914,-97.0507,1021.05,11111222 
TABS,ioos:station:wmo:42044:1,2017-04-06T06:30:00Z,26.1914,-97.0507,1021.04,11111222 
TABS,ioos:station:wmo:42044:1,2017-04-06T07:00:00Z,26.1914,-97.0507,1020.85,11111222 
TABS,ioos:station:wmo:42044:1,2017-04-06T07:30:00Z,26.1914,-97.0507,1020.76,11111222 
TABS,ioos:station:wmo:42044:1,2017-04-06T08:00:00Z,26.1914,-97.0507,1021.01,11111222 
TABS,ioos:station:wmo:42044:1,2017-04-06T08:30:00Z,26.1914,-97.0507,1021.1,11111222 
TABS,ioos:station:wmo:42044:1,2017-04-06T09:00:00Z,26.1914,-97.0507,1020.95,11111222 
TABS,ioos:station:wmo:42044:1,2017-04-06T09:30:00Z,26.1914,-97.0507,1020.97,11111222 
TABS,ioos:station:wmo:42044:1,2017-04-06T10:00:00Z,26.1914,-97.0507,1021.18,11111222 
TABS,ioos:station:wmo:42044:1,2017-04-06T10:30:00Z,26.1914,-97.0507,1021.45,11111222 
TABS,ioos:station:wmo:42044:1,2017-04-06T11:00:00Z,26.1914,-97.0507,1021.57,11111222 
TABS,ioos:station:wmo:42044:1,2017-04-06T11:30:00Z,26.1914,-97.0507,1021.84,11111222 
TABS,ioos:station:wmo:42044:1,2017-04-06T12:00:00Z,26.1914,-97.0507,1022.24,11111222 
TABS,ioos:station:wmo:42044:1,2017-04-06T12:30:00Z,26.1914,-97.0507,1022.7,11111222 
TABS,ioos:station:wmo:42044:1,2017-04-06T13:00:00Z,26.1914,-97.0507,1023.18,11111222 
TABS,ioos:station:wmo:42044:1,2017-04-06T13:30:00Z,26.1914,-97.0507,1023.68,11111222 
TABS,ioos:station:wmo:42044:1,2017-04-06T14:00:00Z,26.1914,-97.0507,1024.27,11111222 
TABS,ioos:station:wmo:42044:1,2017-04-06T14:30:00Z,26.1914,-97.0507,1024.63,11111222 
TABS,ioos:station:wmo:42044:1,2017-04-06T15:00:00Z,26.1914,-97.0507,1024.71,11111222 
TABS,ioos:station:wmo:42044:1,2017-04-06T15:30:00Z,26.1914,-97.0507,1025.0,11111222 
TABS,ioos:station:wmo:42044:1,2017-04-06T16:00:00Z,26.1914,-97.0507,1024.82,11111222 
TABS,ioos:station:wmo:42044:1,2017-04-06T16:30:00Z,26.1914,-97.0507,1024.85,11111222 
TABS,ioos:station:wmo:42044:1,2017-04-06T17:00:00Z,26.1914,-97.0507,1025.21,11111222 
TABS,ioos:station:wmo:42044:1,2017-04-06T17:30:00Z,26.1914,-97.0507,1024.85,11111222 
TABS,ioos:station:wmo:42044:1,2017-04-06T18:00:00Z,26.1914,-97.0507,1024.6,11111222 
TABS,ioos:station:wmo:42044:1,2017-04-06T18:30:00Z,26.1914,-97.0507,1024.45,11111222 